SL-8 DEB, 21403

Orbit data source: Space-Track

SL-8 DEB, 21403 is space debris in LEO originally from a launch on Tue, 12 Feb 1991 UTC launched from the Plesetsk Missile And Space Complex (PKMTR). Debris objects in space refer to the collection of defunct objects orbiting the Earth. Examples of debris include non-operational satellites, rocket bodies, and fragments generated from explosions, collisions, or faulty payload assembly.

Loading next visibility...
Identifier
21403, 1991-009BS
Orbit
LEO
Country
Flag of CISCIS
Related business
Manufacturer
Unknown
Mission
Spacecraft
Bus & Motor
Unknown
Mass
Unknown
Launch date (UTC)
1991-02-12 (35 years ago)
Launch vehicle
Unknown
Launch site
Plesetsk Missile And Space Complex (PKMTR)
Object type
Payload
Rocket body
Debris
Shape & HBR
Unknown shape, 0.1 m
Radar Cross Section
Medium (>0.1 m² and <1 m²)

Expand to show TLE details & history
Last TLE update: 15 hours ago

TLE from 15 hours ago
0 SL-8 DEB
1 21403U 91009BS  26171.27285875  .00000072  00000-0  70575-3 0  9996
2 21403  73.9355  99.7938 0134138  17.6305 136.5521 12.31851740584924
Epoch: 2026-06-20T06:32Z
TLE epoch observation values (Epoch: 2026-06-20T06:32:54.996Z)
Latitude
23.77028°
Longitude
-94.17632°
Altitude
1,621.491 km
Speed
7.027 km/s
True Right ascension
18h 10m 10s
True Declination
23° 39' 26"
Sunlit
Object was in full shadow at epoch
Visualization orbit readout
Latitude
Unknown
Longitude
Unknown
Altitude
Unknown
Speed
Unknown
Apparent Right ascension
Unknown
Apparent Declination
Unknown
Sunlit
N/A
Visualization observer readout
Local Sidereal Time
08:46:28
Azimuth
Unknown
Elevation
Unknown
Doppler factor
Unknown
Orbital elements
Apogee altitude
1,645.399 km
Perigee altitude
1,432.996 km
Semi-major axis
7,917.335 km
Eccentricity
0.01341
Inclination
73.9355°
RAAN
99.7938°
Arg. of periapsis
17.6305°
True anomaly
137.59638°
Mean anomaly
136.5521°
Eccentric anomaly
137.07551°
Mean motion
3.08088 °/min
Orbital period
116.85 mins
BSTAR
0.00070575
Loading maneuver chart data...
Computing Atmospheric mass density...
Loading historical data...
Loading historical data...
Loading historical data...
Loading historical data...
Loading historical data...
Loading historical data...
Loading historical data...

Documentation

Showing up to 5 results
|